Find OneWeb SL0260

NORAD ID: 48978 Int'l Des: 2021-060 Owner: ONEWEBN Country: UK Constellation: oneweb operational
LEOCIRCULARPOLARONEWEB_TYPE

Live Position

Loading 3D Globe...

About OneWeb SL0260

Description loading...

Upcoming Passes

Passes for default location (London). Set your location on the main map for personalized predictions.

Altitude History

Loading altitude history...

Two-Line Element Set

1 48978U 21060M 26132.82671237 -.00000001 00000-0 -36158-4 0 9995
2 48978 87.9092 235.8067 0002389 99.2502 260.8899 13.16595793234957
Epoch: May 12, 2026 • Age: 5 hours

Current Status

Altitude 1208.1 km
Velocity 7.25 km/s
Sub-Earth Point -25.01°S, 13.82°W
Launch Date Jul 1, 2021
Age 4.8 years
Type internet

Technical Details

Classification Payload
Mass 148.00 kg
Dry Mass 140.00 kg
Total Mass 148.00 kg
Length 1.30 m
Diameter 1.00 m
Span 5.00 m
Shape Trapezoid+2 pan
Manufacturer ONEWUS
Bus Type ARROW
Phase Status In Orbit
Owner/State ONEWEBN/UK

Most Searched